Regional Weather Roundup
Issued by NWS Sterling, VA

Home | Current Version | Previous Version | Graphics & Text | Print | Product List | Glossary On
Versions: 1 2 3 4 5 6 7 8 9 10 11 12 13 14 15 16 17 18 19 20 21 22 23 24 25 26 27 28 29 30 31 32 33 34 35 36 37 38 39 40 41 42 43 44 45 46 47 48 49 50
000
ASUS41 KLWX 011510
RWRLWX

REGIONAL WEATHER ROUNDUP
NATIONAL WEATHER SERVICE BALTIMORE MD/WASHINGTON DC
1100 AM EDT MON SEP 01 2014

Note: "FAIR" indicates few or no clouds below 12,000 feet
with no significant weather and/or obstructions to visibility.
 TC=TEMPERATURE CELSIUS

 * =Non NWS site. Station does not report precipitation (e.g. rain,
    snow, etc.), thunder, or fog.

DCZ001-MDZ009-015-VAZ040>042-051-053>054-011600-
WASHINGTON METRO

CITY           SKY/WX    TMP DP  RH WIND       PRES   REMARKS
WASHINGTON NAT MOSUNNY   84  74  71 S8        30.02S HX  91
DULLES         MOSUNNY   81  72  74 S6        30.02F
ANDREWS AFB    SUNNY     83  75  75 S9        30.02F HX  90
QUANTICO       SUNNY     80  75  84 S12       30.03S
COLLEGE PARK*  MOSUNNY   86  73  66 S3        30.01F HX  93
LEESBURG*      SUNNY     82  75  78 SW3       30.03S
GAITHERSBURG*  SUNNY     82  73  74 W6        30.06S

$$

MDZ006>007-011-014-011600-
BALTIMORE METRO

CITY           SKY/WX    TMP DP  RH WIND       PRES   REMARKS
BWI AIRPORT    PTSUNNY   82  73  74 SW6       30.01F
MD SCIENCE CTR   N/A     83  73  72 MISG      30.01S
MARTIN STATE   MOSUNNY   84  77  79 CALM      30.02F HX  94
ANNAPOLIS      SUNNY     83  73  72 SW7       30.01F
FORT MEADE*    SUNNY     81  73  78 SW7       30.04S

$$

MDZ012-015-019>023-011600-
MARYLAND EASTERN SHORE

CITY           SKY/WX    TMP DP  RH WIND       PRES   REMARKS
OCEAN CITY     PTSUNNY   83  75  77 SW6       30.04F HX  90
SALISBURY      PTSUNNY   87  75  67 S7        30.03F HX  96
BAY BRIDGE AP*   N/A     81  72  74 CALM      30.02S
CAMBRIDGE*     MOSUNNY   81  72  74 CALM      30.03R
EASTON*        SUNNY     84  73  70 CALM      30.06S HX  91

$$

MDZ017>025-011600-
SOUTHERN MARYLAND

CITY           SKY/WX    TMP DP  RH WIND       PRES   REMARKS
PATUXENT RIVER PTSUNNY   82  75  79 SW6       30.03R
ST INIGOES     PTSUNNY   83  74  74 S5        30.02S
LEONARDTOWN*   PTSUNNY   81  72  74 SW5       30.04S

$$

MDZ003>005-011600-
NORTH CENTRAL MARYLAND

CITY           SKY/WX    TMP DP  RH WIND       PRES   REMARKS
FREDERICK*     NOT AVBL
HAGERSTOWN APT CLOUDY    76  71  85 NW5       30.04R
WESTMINSTER*   MOSUNNY   79  72  78 CALM      30.04F

$$

MDZ501>502-011600-
WESTERN MARYLAND

CITY           SKY/WX    TMP DP  RH WIND       PRES   REMARKS
OAKLAND*       CLOUDY    66 N/A N/A W5        30.13F FOG
CUMBERLAND*    PTSUNNY   81  72  74 CALM      30.07S

$$

VAZ025>031-011600-
SHENANDOAH VALLEY

CITY           SKY/WX    TMP DP  RH WIND       PRES   REMARKS
WINCHESTER*    PTSUNNY   82  70  65 W8        30.03F
STAUNTON*      MOSUNNY   85  66  53 SW9       30.10R

$$

WVZ021-048>050-054>055-011600-
EASTERN WEST VIRGINIA PANHANDLE

CITY           SKY/WX    TMP DP  RH WIND       PRES   REMARKS
MARTINSBURG    CLOUDY    82  68  62 SE3       30.03S
PETERSBURG*    NOT AVBL

$$

VAZ036>039-050-011600-
CENTRAL FOOTHILLS

CITY           SKY/WX    TMP DP  RH WIND       PRES   REMARKS
CHARLOTTESVILL MOSUNNY   84  71  65 SW8       30.05S
ORANGE*        SUNNY     84  73  70 S7        30.05S HX  91

$$

VAZ055>057-011600-
NORTH AND CENTRAL PIEDMONT

CITY           SKY/WX    TMP DP  RH WIND       PRES   REMARKS
FREDERICKSBRG* MOSUNNY   83  78  84 SW8       30.02S HX  93
STAFFORD*      MOSUNNY   82  81  98 SW6       30.07S HX  94

$$

NCZ024-NYZ072-PAZ021-071-VAZ022-071-011600-
OTHER REGIONAL OBSERVATIONS

CITY           SKY/WX    TMP DP  RH WIND       PRES   REMARKS
NEW YORK CITY  SUNNY     81  69  67 W6        30.03S
PHILADELPHIA   PTSUNNY   80  73  79 SW8       30.03S
PITTSBURGH     PTSUNNY   74  69  85 SW8       30.03R
ROANOKE        MOSUNNY   80  67  64 W7        30.13S
RICHMOND       PTSUNNY   91  72  53 SW9G16    30.04S HX  98
RALEIGH        PTSUNNY   85  73  67 SW7       30.11S HX  91

$$

ANZ530>537-011600-
MARINE OBSERVATIONS

STATION/POSITION TIME  TEMP    WIND        PRES
                       AIR SEA DIR/SP/G
                 (UTC) (F)     (DEG/KT/KT) (MB)
THOMAS PT LIGHT  1500   78 79  130/  3/  4 1017.5S
BALT KEY BRIDGE  1500           80/  2/  3 1016.1F
COVE POINT       1500   80     210/  3/  4 1016.7S
LEWISETTA        1500   83 81  230/  8/ 10 1016.5F
SOLOMONS ISLAND  1500      80                N/A
PINEY POINT      1500          110/  2/  3   N/A

$$



USA.gov is the U.S. government's official web portal to all federal, state and local government web resources and services.